Dew Point Data


Current

Temp 29.0 F. Dew Point 24.1 F.


Dew Point Comfort Scale

dewpoints

Date, Time Temperature Dew Point
Sat Nov 16 00:08:04 2019 26.0 F. 23.0 F.
Sat Nov 16 01:08:05 2019 24.0 F. 21.9 F.
Sat Nov 16 02:08:05 2019 25.0 F. 21.9 F.
Sat Nov 16 03:08:05 2019 24.0 F. 21.0 F.
Sat Nov 16 04:08:05 2019 24.0 F. 21.0 F.
Sat Nov 16 05:08:05 2019 23.0 F. 19.9 F.
Sat Nov 16 06:08:04 2019 24.0 F. 21.0 F.
Sat Nov 16 07:08:05 2019 23.0 F. 21.0 F.
Sat Nov 16 08:08:05 2019 29.0 F. 26.1 F.
Sat Nov 16 09:08:05 2019 36.0 F. 28.9 F.
Sat Nov 16 10:08:04 2019 39.0 F. 30.0 F.
Sat Nov 16 11:09:00 2019
Sat Nov 16 12:09:00 2019
Sat Nov 16 13:09:00 2019
Sat Nov 16 14:09:00 2019
Sat Nov 16 15:08:59 2019
Sat Nov 16 16:09:00 2019
Sat Nov 16 17:09:00 2019
Sat Nov 16 18:08:05 2019 38.0 F. 30.0 F.
Sat Nov 16 19:08:05 2019 37.0 F. 30.0 F.
Sat Nov 16 20:08:04 2019 36.0 F. 30.0 F.
Sat Nov 16 21:08:05 2019 34.0 F. 28.9 F.
Sat Nov 16 22:08:04 2019 33.0 F. 28.9 F.
Sat Nov 16 23:08:05 2019 30.0 F. 28.0 F.
Sun Nov 17 00:08:05 2019 28.0 F. 26.1 F.
Sun Nov 17 01:08:05 2019 27.0 F. 25.0 F.
Sun Nov 17 02:08:05 2019 26.0 F. 24.1 F.
Sun Nov 17 03:08:05 2019 24.0 F. 21.9 F.
Sun Nov 17 04:08:05 2019 25.0 F. 21.9 F.
Sun Nov 17 05:08:05 2019 25.0 F. 23.0 F.
Sun Nov 17 06:08:05 2019 25.0 F. 23.0 F.
Sun Nov 17 07:08:05 2019 24.0 F. 21.9 F.
Sun Nov 17 08:08:05 2019 29.0 F. 27.0 F.
Sun Nov 17 09:08:04 2019 34.0 F. 32.0 F.
Sun Nov 17 10:08:04 2019 37.0 F. 33.1 F.
Sun Nov 17 11:08:04 2019 42.0 F. 34.0 F.
Sun Nov 17 12:08:05 2019 46.0 F. 35.1 F.
Sun Nov 17 13:08:05 2019 50.0 F. 33.1 F.
Sun Nov 17 14:08:04 2019 50.0 F. 33.1 F.
Sun Nov 17 15:08:05 2019 49.0 F. 33.1 F.
Sun Nov 17 16:08:06 2019 47.0 F. 34.0 F.
Sun Nov 17 17:08:05 2019 45.0 F. 34.0 F.
Sun Nov 17 18:08:04 2019 45.0 F. 35.1 F.
Sun Nov 17 19:08:05 2019 44.0 F. 35.1 F.
Sun Nov 17 20:08:05 2019 42.0 F. 35.1 F.
Sun Nov 17 21:08:05 2019 39.0 F. 34.0 F.
Sun Nov 17 22:08:05 2019 39.0 F. 34.0 F.
Sun Nov 17 23:08:05 2019 44.0 F. 36.0 F.
Mon Nov 18 00:08:05 2019 41.0 F. 35.1 F.
Mon Nov 18 01:08:05 2019 38.0 F. 34.0 F.
Mon Nov 18 02:08:05 2019 34.0 F. 32.0 F.
Mon Nov 18 03:08:05 2019 39.0 F. 36.0 F.
Mon Nov 18 04:08:05 2019 43.0 F. 37.9 F.
Mon Nov 18 05:08:05 2019 43.0 F. 37.0 F.
Mon Nov 18 06:08:04 2019 43.0 F. 37.0 F.
Mon Nov 18 07:08:04 2019 41.0 F. 37.0 F.
Mon Nov 18 08:08:04 2019 43.0 F. 37.9 F.
Mon Nov 18 09:08:04 2019 46.0 F. 37.9 F.
Mon Nov 18 10:08:05 2019 50.0 F. 37.9 F.
Mon Nov 18 11:08:05 2019 51.0 F. 37.0 F.
Mon Nov 18 12:08:05 2019 51.0 F. 37.0 F.
Mon Nov 18 13:08:19 2019 54.0 F. 36.0 F.
Mon Nov 18 14:08:04 2019 52.0 F. 36.0 F.
Mon Nov 18 15:08:05 2019 52.0 F. 36.0 F.
Mon Nov 18 16:08:04 2019 51.0 F. 35.1 F.
Mon Nov 18 17:08:04 2019 46.0 F. 35.1 F.
Mon Nov 18 18:08:04 2019 46.0 F. 35.1 F.
Mon Nov 18 19:08:04 2019 47.0 F. 36.0 F.
Mon Nov 18 20:08:04 2019 47.0 F. 37.0 F.
Mon Nov 18 21:08:05 2019 49.0 F. 37.9 F.
Mon Nov 18 22:08:05 2019 47.0 F. 39.9 F.
Mon Nov 18 23:08:05 2019 47.0 F. 39.9 F.
Tue Nov 19 00:08:05 2019 46.0 F. 41.0 F.
Tue Nov 19 01:08:04 2019 46.0 F. 41.0 F.
Tue Nov 19 02:08:05 2019 45.0 F. 42.1 F.
Tue Nov 19 03:08:05 2019 44.0 F. 43.0 F.
Tue Nov 19 04:08:04 2019 44.0 F. 42.1 F.
Tue Nov 19 05:08:05 2019 44.0 F. 42.1 F.
Tue Nov 19 06:08:05 2019 43.0 F. 42.1 F.
Tue Nov 19 07:08:06 2019 41.0 F. 39.0 F.
Tue Nov 19 08:08:04 2019 45.0 F. 43.0 F.
Tue Nov 19 09:09:00 2019
Tue Nov 19 10:08:05 2019 51.0 F. 43.0 F.
Tue Nov 19 11:08:05 2019 50.0 F. 42.1 F.
Tue Nov 19 12:08:05 2019 52.0 F. 41.0 F.
Tue Nov 19 13:08:05 2019 52.0 F. 41.0 F.
Tue Nov 19 14:08:04 2019 56.0 F. 37.9 F.
Tue Nov 19 15:08:05 2019 56.0 F. 37.9 F.
Tue Nov 19 16:08:04 2019 56.0 F. 37.0 F.
Tue Nov 19 17:08:04 2019 56.0 F. 37.0 F.
Tue Nov 19 18:08:04 2019 46.0 F. 37.0 F.
Tue Nov 19 19:08:04 2019 44.0 F. 36.0 F.
Tue Nov 19 20:08:05 2019 40.0 F. 35.1 F.
Tue Nov 19 21:08:05 2019 38.0 F. 34.0 F.
Tue Nov 19 22:08:05 2019 33.0 F. 32.0 F.
Tue Nov 19 23:08:05 2019 33.0 F. 32.0 F.
Wed Nov 20 00:08:04 2019 31.0 F. 30.0 F.
Wed Nov 20 01:08:05 2019 31.0 F. 30.9 F.
Wed Nov 20 02:08:04 2019 31.0 F. 30.9 F.
Wed Nov 20 03:08:05 2019 29.0 F. 28.9 F.
Wed Nov 20 04:08:04 2019 28.0 F. 28.0 F.
Wed Nov 20 05:08:05 2019 28.0 F. 27.0 F.
Wed Nov 20 06:08:05 2019 28.0 F. 27.0 F.
Wed Nov 20 07:08:05 2019 29.0 F. 28.0 F.
Wed Nov 20 08:08:05 2019 34.0 F. 33.1 F.
Wed Nov 20 09:08:05 2019 41.0 F. 37.9 F.
Wed Nov 20 10:08:05 2019 48.0 F. 39.9 F.
Wed Nov 20 11:08:05 2019 48.0 F. 39.9 F.
Wed Nov 20 12:08:04 2019 57.0 F. 39.0 F.
Wed Nov 20 13:08:05 2019 57.0 F. 39.0 F.
Wed Nov 20 14:08:05 2019 60.0 F. 37.9 F.
Wed Nov 20 15:08:05 2019 59.0 F. 37.9 F.
Wed Nov 20 16:08:05 2019 57.0 F. 37.9 F.
Wed Nov 20 17:08:04 2019 55.0 F. 37.9 F.
Wed Nov 20 18:08:05 2019 55.0 F. 37.9 F.
Wed Nov 20 19:08:05 2019 52.0 F. 39.0 F.
Wed Nov 20 20:08:05 2019 51.0 F. 39.0 F.
Wed Nov 20 21:08:05 2019 48.0 F. 37.0 F.
Wed Nov 20 22:08:05 2019 50.0 F. 37.9 F.
Wed Nov 20 23:08:05 2019 53.0 F. 37.9 F.
Thu Nov 21 00:08:05 2019 55.0 F. 36.0 F.
Thu Nov 21 01:08:05 2019 56.0 F. 35.1 F.
Thu Nov 21 02:08:05 2019 54.0 F. 36.0 F.
Thu Nov 21 03:08:05 2019 55.0 F. 36.0 F.
Thu Nov 21 04:08:05 2019 56.0 F. 37.0 F.
Thu Nov 21 05:08:05 2019 56.0 F. 37.0 F.
Thu Nov 21 06:08:04 2019 54.0 F. 43.0 F.
Thu Nov 21 07:08:05 2019 51.0 F. 46.0 F.
Thu Nov 21 08:08:05 2019 50.0 F. 46.9 F.
Thu Nov 21 09:08:05 2019 51.0 F. 48.9 F.
Thu Nov 21 10:08:05 2019 52.0 F. 48.0 F.
Thu Nov 21 11:08:04 2019 53.0 F. 48.9 F.
Thu Nov 21 12:08:05 2019 53.0 F. 48.9 F.
Thu Nov 21 13:08:05 2019 54.0 F. 51.1 F.
Thu Nov 21 14:08:05 2019 54.0 F. 51.1 F.
Thu Nov 21 15:08:04 2019 54.0 F. 51.1 F.
Thu Nov 21 16:08:05 2019 54.0 F. 53.1 F.
Thu Nov 21 17:08:04 2019 54.0 F. 53.1 F.
Thu Nov 21 18:08:04 2019 55.0 F. 54.0 F.
Thu Nov 21 19:08:05 2019 55.0 F. 54.0 F.
Thu Nov 21 20:08:05 2019 54.0 F. 54.0 F.
Thu Nov 21 21:08:05 2019 50.0 F. 50.0 F.
Thu Nov 21 22:08:05 2019 48.0 F. 46.9 F.
Thu Nov 21 23:08:05 2019 48.0 F. 46.9 F.
Fri Nov 22 00:08:04 2019 47.0 F. 45.0 F.
Fri Nov 22 01:08:05 2019 44.0 F. 42.1 F.
Fri Nov 22 02:08:04 2019 43.0 F. 39.9 F.
Fri Nov 22 03:08:05 2019 43.0 F. 39.9 F.
Fri Nov 22 04:08:04 2019 41.0 F. 39.0 F.
Fri Nov 22 05:08:04 2019 41.0 F. 37.9 F.
Fri Nov 22 06:08:05 2019 40.0 F. 37.0 F.
Fri Nov 22 07:08:05 2019 40.0 F. 36.0 F.
Fri Nov 22 08:08:05 2019 40.0 F. 37.0 F.
Fri Nov 22 09:08:04 2019 40.0 F. 37.0 F.
Fri Nov 22 10:08:05 2019 40.0 F. 34.0 F.
Fri Nov 22 11:08:05 2019 42.0 F. 34.0 F.
Fri Nov 22 12:08:04 2019 43.0 F. 35.1 F.
Fri Nov 22 13:08:05 2019 44.0 F. 34.0 F.
Fri Nov 22 14:08:05 2019 44.0 F. 33.1 F.
Fri Nov 22 15:08:05 2019 43.0 F. 33.1 F.
Fri Nov 22 16:08:05 2019 42.0 F. 33.1 F.
Fri Nov 22 17:08:04 2019 40.0 F. 32.0 F.
Fri Nov 22 18:08:05 2019 39.0 F. 32.0 F.
Fri Nov 22 19:08:05 2019 37.0 F. 32.0 F.
Fri Nov 22 20:08:05 2019 40.0 F. 34.0 F.
Fri Nov 22 21:08:05 2019 40.0 F. 33.1 F.
Fri Nov 22 22:08:05 2019 40.0 F. 33.1 F.
Fri Nov 22 23:08:05 2019 40.0 F. 34.0 F.
Sat Nov 23 00:08:05 2019 40.0 F. 34.0 F.
Sat Nov 23 01:08:05 2019 40.0 F. 34.0 F.
Sat Nov 23 02:08:05 2019 40.0 F. 35.1 F.
Sat Nov 23 03:08:04 2019 39.0 F. 36.0 F.
Sat Nov 23 04:08:04 2019 38.0 F. 36.0 F.
Sat Nov 23 05:08:04 2019 38.0 F. 37.0 F.
Sat Nov 23 06:08:05 2019 37.0 F. 37.0 F.
Sat Nov 23 07:08:05 2019 37.0 F. 36.0 F.
Sat Nov 23 08:08:05 2019 37.0 F. 36.0 F.
Sat Nov 23 09:08:05 2019 38.0 F. 36.0 F.
Sat Nov 23 10:08:04 2019 38.0 F. 37.0 F.
Sat Nov 23 11:08:05 2019 39.0 F. 37.0 F.
Sat Nov 23 12:08:04 2019 39.0 F. 37.0 F.
Sat Nov 23 13:08:05 2019 38.0 F. 36.0 F.
Sat Nov 23 14:08:05 2019 38.0 F. 36.0 F.
Sat Nov 23 15:08:05 2019 38.0 F. 36.0 F.
Sat Nov 23 16:08:05 2019 39.0 F. 35.1 F.
Sat Nov 23 17:08:05 2019 39.0 F. 35.1 F.
Sat Nov 23 18:08:05 2019 39.0 F. 35.1 F.
Sat Nov 23 19:08:05 2019 39.0 F. 34.0 F.
Sat Nov 23 20:08:05 2019 39.0 F. 34.0 F.
Sat Nov 23 21:08:05 2019 36.0 F. 32.0 F.
Sat Nov 23 22:08:05 2019 34.0 F. 30.9 F.
Sat Nov 23 23:08:05 2019 34.0 F. 30.9 F.
Sun Nov 24 00:08:05 2019 32.0 F. 30.0 F.
Sun Nov 24 01:08:05 2019 31.0 F. 28.9 F.
Sun Nov 24 02:08:05 2019 32.0 F. 28.9 F.
Sun Nov 24 03:08:05 2019 30.0 F. 28.0 F.
Sun Nov 24 04:08:05 2019 30.0 F. 28.0 F.
Sun Nov 24 05:08:04 2019 30.0 F. 28.0 F.
Sun Nov 24 06:08:05 2019 30.0 F. 28.0 F.
Sun Nov 24 07:08:04 2019 28.0 F. 27.0 F.
Sun Nov 24 08:08:04 2019 33.0 F. 30.0 F.
Sun Nov 24 09:08:05 2019 38.0 F. 33.1 F.
Sun Nov 24 10:08:05 2019 42.0 F. 35.1 F.
Sun Nov 24 11:08:05 2019 46.0 F. 35.1 F.
Sun Nov 24 12:08:05 2019 49.0 F. 37.0 F.
Sun Nov 24 13:08:04 2019 52.0 F. 37.9 F.
Sun Nov 24 14:08:05 2019 53.0 F. 39.0 F.
Sun Nov 24 15:08:05 2019 53.0 F. 37.9 F.
Sun Nov 24 16:08:05 2019 50.0 F. 39.0 F.
Sun Nov 24 17:08:05 2019 47.0 F. 37.9 F.
Sun Nov 24 18:08:05 2019 46.0 F. 37.9 F.
Sun Nov 24 19:08:05 2019 44.0 F. 37.9 F.
Sun Nov 24 20:08:05 2019 44.0 F. 37.9 F.
Sun Nov 24 21:08:05 2019 45.0 F. 39.0 F.
Sun Nov 24 22:08:05 2019 44.0 F. 39.0 F.
Sun Nov 24 23:08:05 2019 42.0 F. 37.9 F.
Mon Nov 25 00:08:06 2019 40.0 F. 37.0 F.
Mon Nov 25 01:08:04 2019 40.0 F. 37.0 F.
Mon Nov 25 02:08:04 2019 39.0 F. 37.0 F.
Mon Nov 25 03:08:04 2019 41.0 F. 37.9 F.
Mon Nov 25 04:08:04 2019 40.0 F. 37.0 F.
Mon Nov 25 05:08:05 2019 39.0 F. 37.0 F.
Mon Nov 25 06:08:04 2019 40.0 F. 37.0 F.
Mon Nov 25 07:08:10 2019 39.0 F. 36.0 F.
Mon Nov 25 08:08:05 2019 43.0 F. 39.0 F.
Mon Nov 25 09:08:05 2019 43.0 F. 39.0 F.
Mon Nov 25 10:08:04 2019 48.0 F. 41.0 F.
Mon Nov 25 11:08:05 2019 57.0 F. 42.1 F.
Mon Nov 25 12:08:04 2019 57.0 F. 42.1 F.
Mon Nov 25 13:08:05 2019 59.0 F. 41.0 F.
Mon Nov 25 14:08:05 2019 59.0 F. 41.0 F.
Mon Nov 25 15:08:05 2019 63.0 F. 39.0 F.
Mon Nov 25 16:08:05 2019 59.0 F. 41.0 F.
Mon Nov 25 17:08:04 2019 54.0 F. 42.1 F.
Mon Nov 25 18:08:05 2019 50.0 F. 41.0 F.
Mon Nov 25 19:08:05 2019 47.0 F. 39.9 F.
Mon Nov 25 20:08:05 2019 47.0 F. 39.9 F.
Mon Nov 25 21:08:06 2019 43.0 F. 39.0 F.
Mon Nov 25 22:08:05 2019 42.0 F. 39.0 F.
Mon Nov 25 23:08:05 2019 44.0 F. 41.0 F.
Tue Nov 26 00:08:05 2019 45.0 F. 39.9 F.
Tue Nov 26 01:08:05 2019 45.0 F. 39.9 F.
Tue Nov 26 02:08:05 2019 46.0 F. 39.9 F.
Tue Nov 26 03:08:05 2019 48.0 F. 41.0 F.
Tue Nov 26 04:08:05 2019 49.0 F. 42.1 F.
Tue Nov 26 05:08:05 2019 51.0 F. 43.0 F.
Tue Nov 26 06:08:05 2019 51.0 F. 43.0 F.
Tue Nov 26 07:08:05 2019 51.0 F. 44.1 F.
Tue Nov 26 08:08:04 2019 52.0 F. 44.1 F.
Tue Nov 26 09:08:11 2019 53.0 F. 45.0 F.
Tue Nov 26 10:08:05 2019 55.0 F. 46.0 F.
Tue Nov 26 11:08:06 2019 56.0 F. 46.0 F.
Tue Nov 26 12:08:05 2019 56.0 F. 46.0 F.
Tue Nov 26 13:08:05 2019 56.0 F. 48.0 F.
Tue Nov 26 14:08:05 2019 57.0 F. 48.9 F.
Tue Nov 26 15:08:05 2019 57.0 F. 48.9 F.
Tue Nov 26 16:08:04 2019 55.0 F. 54.0 F.
Tue Nov 26 17:08:04 2019 57.0 F. 55.0 F.
Tue Nov 26 18:08:04 2019 57.0 F. 55.0 F.
Tue Nov 26 19:08:05 2019 59.0 F. 57.0 F.
Tue Nov 26 20:08:05 2019 60.0 F. 57.9 F.
Tue Nov 26 21:08:05 2019 61.0 F. 59.0 F.
Tue Nov 26 22:08:05 2019 61.0 F. 59.0 F.
Tue Nov 26 23:08:04 2019 61.0 F. 57.9 F.
Wed Nov 27 00:08:04 2019 63.0 F. 59.0 F.
Wed Nov 27 01:08:05 2019 63.0 F. 59.0 F.
Wed Nov 27 02:08:04 2019 59.0 F. 48.9 F.
Wed Nov 27 03:08:05 2019 57.0 F. 41.0 F.
Wed Nov 27 04:08:05 2019 56.0 F. 30.9 F.
Wed Nov 27 05:08:04 2019 49.0 F. 30.0 F.
Wed Nov 27 06:08:05 2019 44.0 F. 28.9 F.
Wed Nov 27 07:08:04 2019 44.0 F. 28.9 F.
Wed Nov 27 08:08:05 2019 44.0 F. 28.9 F.
Wed Nov 27 09:08:04 2019 45.0 F. 28.9 F.
Wed Nov 27 10:08:05 2019 46.0 F. 28.0 F.
Wed Nov 27 11:08:05 2019 47.0 F. 28.0 F.
Wed Nov 27 12:08:05 2019 48.0 F. 28.9 F.
Wed Nov 27 13:08:05 2019 50.0 F. 28.9 F.
Wed Nov 27 14:08:05 2019 50.0 F. 28.9 F.
Wed Nov 27 15:08:04 2019 50.0 F. 28.0 F.
Wed Nov 27 16:08:05 2019 47.0 F. 27.0 F.
Wed Nov 27 17:08:05 2019 47.0 F. 27.0 F.
Wed Nov 27 18:08:05 2019 42.0 F. 28.0 F.
Wed Nov 27 19:08:04 2019 38.0 F. 28.9 F.
Wed Nov 27 20:08:04 2019 37.0 F. 28.0 F.
Wed Nov 27 21:08:04 2019 36.0 F. 27.0 F.
Wed Nov 27 22:08:04 2019 36.0 F. 27.0 F.
Wed Nov 27 23:08:05 2019 34.0 F. 27.0 F.
Thu Nov 28 00:08:04 2019 35.0 F. 27.0 F.
Thu Nov 28 01:08:05 2019 34.0 F. 27.0 F.
Thu Nov 28 02:08:05 2019 34.0 F. 27.0 F.
Thu Nov 28 03:08:05 2019 33.0 F. 26.1 F.
Thu Nov 28 04:08:05 2019 31.0 F. 26.1 F.
Thu Nov 28 05:08:05 2019 32.0 F. 27.0 F.
Thu Nov 28 06:08:05 2019 32.0 F. 27.0 F.
Thu Nov 28 07:08:05 2019 33.0 F. 27.0 F.
Thu Nov 28 08:08:04 2019 33.0 F. 28.0 F.
Thu Nov 28 09:08:05 2019 34.0 F. 28.9 F.
Thu Nov 28 10:08:04 2019 36.0 F. 28.9 F.
Thu Nov 28 11:08:04 2019 36.0 F. 28.9 F.
Thu Nov 28 12:08:05 2019 37.0 F. 28.9 F.
Thu Nov 28 13:08:05 2019 37.0 F. 28.9 F.
Thu Nov 28 14:08:04 2019 37.0 F. 30.0 F.
Thu Nov 28 15:08:05 2019 37.0 F. 30.0 F.
Thu Nov 28 16:08:04 2019 37.0 F. 32.0 F.
Thu Nov 28 17:08:05 2019 37.0 F. 33.1 F.
Thu Nov 28 18:08:05 2019 37.0 F. 33.1 F.
Thu Nov 28 19:08:05 2019 37.0 F. 34.0 F.
Thu Nov 28 20:08:05 2019 37.0 F. 34.0 F.
Thu Nov 28 21:08:06 2019 37.0 F. 35.1 F.
Thu Nov 28 22:08:05 2019 37.0 F. 35.1 F.
Thu Nov 28 23:08:05 2019 37.0 F. 35.1 F.
Fri Nov 29 00:08:05 2019 37.0 F. 35.1 F.
Fri Nov 29 01:08:05 2019 37.0 F. 35.1 F.
Fri Nov 29 02:08:05 2019 37.0 F. 35.1 F.
Fri Nov 29 03:08:05 2019 38.0 F. 35.1 F.
Fri Nov 29 04:08:05 2019 38.0 F. 35.1 F.
Fri Nov 29 05:08:04 2019 38.0 F. 35.1 F.
Fri Nov 29 06:08:04 2019 38.0 F. 35.1 F.
Fri Nov 29 07:08:04 2019 38.0 F. 35.1 F.
Fri Nov 29 08:08:04 2019 38.0 F. 35.1 F.
Fri Nov 29 09:08:05 2019 39.0 F. 36.0 F.
Fri Nov 29 10:08:05 2019 40.0 F. 37.0 F.
Fri Nov 29 11:08:05 2019 41.0 F. 37.0 F.
Fri Nov 29 12:08:04 2019 43.0 F. 37.0 F.
Fri Nov 29 13:08:05 2019 43.0 F. 37.0 F.
Fri Nov 29 14:08:05 2019 44.0 F. 37.9 F.
Fri Nov 29 15:08:05 2019 44.0 F. 37.9 F.
Fri Nov 29 16:08:05 2019 43.0 F. 39.0 F.
Fri Nov 29 17:08:05 2019 42.0 F. 41.0 F.
Fri Nov 29 18:08:04 2019 42.0 F. 41.0 F.
Fri Nov 29 19:08:05 2019 42.0 F. 39.9 F.
Fri Nov 29 20:08:05 2019 41.0 F. 39.9 F.
Fri Nov 29 21:08:05 2019 42.0 F. 41.0 F.
Fri Nov 29 22:08:04 2019 42.0 F. 41.0 F.
Fri Nov 29 23:08:05 2019 42.0 F. 41.0 F.
Sat Nov 30 00:08:05 2019 42.0 F. 41.0 F.
Sat Nov 30 01:08:05 2019 42.0 F. 41.0 F.
Sat Nov 30 02:08:05 2019 42.0 F. 41.0 F.
Sat Nov 30 03:08:05 2019 42.0 F. 41.0 F.
Sat Nov 30 04:08:04 2019 43.0 F. 42.1 F.
Sat Nov 30 05:08:05 2019 43.0 F. 42.1 F.
Sat Nov 30 06:08:04 2019 44.0 F. 43.0 F.
Sat Nov 30 07:08:05 2019 44.0 F. 43.0 F.
Sat Nov 30 08:08:05 2019 45.0 F. 44.1 F.
Sat Nov 30 09:08:05 2019 46.0 F. 45.0 F.
Sat Nov 30 10:08:05 2019 47.0 F. 46.9 F.
Sat Nov 30 11:08:04 2019 52.0 F. 51.1 F.
Sat Nov 30 12:08:04 2019 55.0 F. 53.1 F.
Sat Nov 30 13:08:05 2019 56.0 F. 55.0 F.
Sat Nov 30 14:08:05 2019 56.0 F. 55.0 F.
Sat Nov 30 15:08:05 2019 58.0 F. 55.9 F.
Sat Nov 30 16:08:04 2019 57.0 F. 57.0 F.
Sat Nov 30 17:08:04 2019 57.0 F. 57.0 F.
Sat Nov 30 18:08:05 2019 57.0 F. 57.0 F.
Sat Nov 30 19:08:04 2019 59.0 F. 57.9 F.
Sat Nov 30 20:08:05 2019 56.0 F. 55.9 F.
Sat Nov 30 21:08:05 2019 60.0 F. 57.0 F.
Sat Nov 30 22:08:05 2019 58.0 F. 48.9 F.
Sat Nov 30 23:08:04 2019 58.0 F. 48.9 F.
Sun Dec 1 00:08:05 2019 50.0 F. 37.0 F.
Sun Dec 1 01:08:04 2019 48.0 F. 37.0 F.
Sun Dec 1 02:08:04 2019 48.0 F. 34.0 F.
Sun Dec 1 03:08:04 2019 46.0 F. 33.1 F.
Sun Dec 1 04:08:04 2019 47.0 F. 30.9 F.
Sun Dec 1 05:08:05 2019 44.0 F. 28.9 F.
Sun Dec 1 06:08:05 2019 41.0 F. 25.0 F.
Sun Dec 1 07:08:05 2019 40.0 F. 26.1 F.
Sun Dec 1 08:08:09 2019 39.0 F. 27.0 F.
Sun Dec 1 09:08:04 2019 40.0 F. 28.0 F.
Sun Dec 1 10:08:04 2019 40.0 F. 28.0 F.
Sun Dec 1 11:08:04 2019 42.0 F. 30.9 F.
Sun Dec 1 12:08:05 2019 42.0 F. 30.9 F.
Sun Dec 1 13:08:05 2019 42.0 F. 30.9 F.
Sun Dec 1 14:08:04 2019 41.0 F. 30.0 F.
Sun Dec 1 15:08:05 2019 41.0 F. 30.0 F.
Sun Dec 1 16:08:05 2019 40.0 F. 28.9 F.
Sun Dec 1 17:08:05 2019 40.0 F. 28.0 F.
Sun Dec 1 18:08:05 2019 39.0 F. 28.0 F.
Sun Dec 1 19:08:04 2019 38.0 F. 28.0 F.
Sun Dec 1 20:08:05 2019 37.0 F. 27.0 F.
Sun Dec 1 21:08:05 2019 37.0 F. 27.0 F.
Sun Dec 1 22:08:05 2019 37.0 F. 28.0 F.
Sun Dec 1 23:08:04 2019 37.0 F. 28.0 F.
Mon Dec 2 00:08:05 2019 35.0 F. 28.9 F.
Mon Dec 2 01:08:05 2019 35.0 F. 28.9 F.
Mon Dec 2 02:08:04 2019 33.0 F. 30.0 F.
Mon Dec 2 03:08:04 2019 33.0 F. 30.0 F.
Mon Dec 2 04:08:05 2019 34.0 F. 30.0 F.
Mon Dec 2 05:08:05 2019 33.0 F. 30.0 F.
Mon Dec 2 06:08:05 2019 34.0 F. 30.0 F.
Mon Dec 2 07:08:05 2019 33.0 F. 28.0 F.
Mon Dec 2 08:08:05 2019 34.0 F. 28.0 F.
Mon Dec 2 09:08:05 2019 35.0 F. 28.0 F.
Mon Dec 2 10:08:05 2019 35.0 F. 26.1 F.
Mon Dec 2 11:08:04 2019 35.0 F. 28.0 F.
Mon Dec 2 12:08:04 2019 36.0 F. 28.0 F.
Mon Dec 2 13:08:04 2019 36.0 F. 27.0 F.
Mon Dec 2 14:08:04 2019 35.0 F. 27.0 F.
Mon Dec 2 15:08:05 2019 36.0 F. 27.0 F.
Mon Dec 2 16:08:04 2019 37.0 F. 27.0 F.
Mon Dec 2 17:08:05 2019 34.0 F. 26.1 F.
Mon Dec 2 18:08:06 2019 31.0 F. 26.1 F.
Mon Dec 2 19:08:05 2019 29.0 F. 26.1 F.
Mon Dec 2 20:08:05 2019 27.0 F. 26.1 F.
Mon Dec 2 21:08:05 2019 26.0 F. 25.0 F.
Mon Dec 2 22:08:05 2019 26.0 F. 25.0 F.
Mon Dec 2 23:08:05 2019 25.0 F. 24.1 F.
Tue Dec 3 00:08:04 2019 25.0 F. 23.0 F.
Tue Dec 3 01:08:05 2019 24.0 F. 23.0 F.
Tue Dec 3 02:08:04 2019 24.0 F. 23.0 F.
Tue Dec 3 03:08:04 2019 22.0 F. 19.9 F.
Tue Dec 3 04:08:04 2019 24.0 F. 21.9 F.
Tue Dec 3 05:08:05 2019 24.0 F. 21.9 F.
Tue Dec 3 06:08:05 2019 25.0 F. 23.0 F.
Tue Dec 3 07:08:05 2019 25.0 F. 23.0 F.
Tue Dec 3 08:08:05 2019 25.0 F. 24.1 F.
Tue Dec 3 09:08:05 2019 32.0 F. 30.0 F.
Tue Dec 3 10:08:05 2019 37.0 F. 30.0 F.
Tue Dec 3 11:08:04 2019 42.0 F. 28.0 F.
Tue Dec 3 12:08:04 2019 45.0 F. 28.9 F.
Tue Dec 3 13:08:05 2019 47.0 F. 28.9 F.
Tue Dec 3 14:08:05 2019 47.0 F. 28.9 F.
Tue Dec 3 15:08:05 2019 47.0 F. 28.0 F.
Tue Dec 3 16:08:05 2019 45.0 F. 30.0 F.
Tue Dec 3 17:08:05 2019 41.0 F. 30.9 F.
Tue Dec 3 18:08:05 2019 41.0 F. 30.9 F.
Tue Dec 3 19:08:05 2019 38.0 F. 32.0 F.
Tue Dec 3 20:08:05 2019 37.0 F. 32.0 F.
Tue Dec 3 21:08:05 2019 37.0 F. 32.0 F.
Tue Dec 3 22:08:05 2019 37.0 F. 32.0 F.
Tue Dec 3 23:08:05 2019 37.0 F. 32.0 F.
Wed Dec 4 00:08:05 2019 37.0 F. 30.0 F.
Wed Dec 4 01:08:05 2019 37.0 F. 28.9 F.
Wed Dec 4 02:08:05 2019 39.0 F. 28.9 F.
Wed Dec 4 03:08:04 2019 38.0 F. 28.9 F.
Wed Dec 4 04:08:04 2019 35.0 F. 28.9 F.
Wed Dec 4 05:08:04 2019 36.0 F. 28.9 F.
Wed Dec 4 06:08:05 2019 35.0 F. 28.9 F.
Wed Dec 4 07:08:05 2019 35.0 F. 28.9 F.
Wed Dec 4 08:08:04 2019 38.0 F. 30.9 F.
Wed Dec 4 09:08:05 2019 42.0 F. 33.1 F.
Wed Dec 4 10:08:05 2019 46.0 F. 33.1 F.
Wed Dec 4 11:08:04 2019 48.0 F. 34.0 F.
Wed Dec 4 12:08:04 2019 52.0 F. 34.0 F.
Wed Dec 4 13:08:05 2019 54.0 F. 33.1 F.
Wed Dec 4 14:08:05 2019 57.0 F. 30.0 F.
Wed Dec 4 15:08:05 2019 57.0 F. 28.9 F.
Wed Dec 4 16:08:04 2019 57.0 F. 28.9 F.
Wed Dec 4 17:08:04 2019 53.0 F. 27.0 F.
Wed Dec 4 18:08:05 2019 48.0 F. 27.0 F.
Wed Dec 4 19:08:05 2019 48.0 F. 27.0 F.
Wed Dec 4 20:08:05 2019 34.0 F. 28.9 F.
Wed Dec 4 21:08:05 2019 34.0 F. 28.9 F.
Wed Dec 4 22:08:05 2019 31.0 F. 28.9 F.
Wed Dec 4 23:08:04 2019 34.0 F. 28.9 F.
Thu Dec 5 00:08:04 2019 31.0 F. 28.0 F.
Thu Dec 5 01:08:05 2019 30.0 F. 28.0 F.
Thu Dec 5 02:08:05 2019 30.0 F. 27.0 F.
Thu Dec 5 03:08:05 2019 29.0 F. 27.0 F.
Thu Dec 5 04:08:05 2019 29.0 F. 26.1 F.
Thu Dec 5 05:08:06 2019 28.0 F. 27.0 F.
Thu Dec 5 06:08:05 2019 27.0 F. 26.1 F.
Thu Dec 5 07:08:05 2019 28.0 F. 26.1 F.
Thu Dec 5 08:08:04 2019 30.0 F. 28.0 F.
Thu Dec 5 09:08:05 2019 39.0 F. 34.0 F.
Thu Dec 5 10:08:04 2019 50.0 F. 36.0 F.
Thu Dec 5 11:08:05 2019 54.0 F. 35.1 F.
Thu Dec 5 12:08:04 2019 57.0 F. 35.1 F.
Thu Dec 5 13:08:04 2019 57.0 F. 35.1 F.
Thu Dec 5 14:08:05 2019 58.0 F. 35.1 F.
Thu Dec 5 15:08:04 2019 57.0 F. 36.0 F.
Thu Dec 5 16:08:05 2019 57.0 F. 36.0 F.
Thu Dec 5 17:08:04 2019 53.0 F. 36.0 F.
Thu Dec 5 18:08:04 2019 53.0 F. 36.0 F.
Thu Dec 5 19:08:04 2019 50.0 F. 35.1 F.
Thu Dec 5 20:08:05 2019 50.0 F. 36.0 F.
Thu Dec 5 21:08:04 2019 50.0 F. 37.0 F.
Thu Dec 5 22:08:05 2019 51.0 F. 36.0 F.
Thu Dec 5 23:08:05 2019 54.0 F. 35.1 F.
Fri Dec 6 00:08:05 2019 54.0 F. 36.0 F.
Fri Dec 6 01:08:05 2019 52.0 F. 37.0 F.
Fri Dec 6 02:08:05 2019 52.0 F. 37.0 F.
Fri Dec 6 03:08:05 2019 52.0 F. 37.0 F.
Fri Dec 6 04:08:05 2019 49.0 F. 41.0 F.
Fri Dec 6 05:08:04 2019 49.0 F. 41.0 F.
Fri Dec 6 06:08:05 2019 46.0 F. 41.0 F.
Fri Dec 6 07:08:05 2019 45.0 F. 39.9 F.
Fri Dec 6 08:08:04 2019 45.0 F. 39.9 F.
Fri Dec 6 09:08:05 2019 49.0 F. 42.1 F.
Fri Dec 6 10:08:04 2019 49.0 F. 42.1 F.
Fri Dec 6 11:08:04 2019 53.0 F. 39.9 F.
Fri Dec 6 12:08:05 2019 48.0 F. 39.0 F.
Fri Dec 6 13:09:00 2019
Fri Dec 6 14:09:00 2019
Fri Dec 6 15:09:00 2019
Fri Dec 6 16:09:00 2019
Fri Dec 6 17:09:01 2019
Fri Dec 6 18:08:04 2019 41.0 F. 34.0 F.
Fri Dec 6 19:08:05 2019 41.0 F. 33.1 F.
Fri Dec 6 20:08:05 2019 37.0 F. 28.9 F.
Fri Dec 6 21:08:05 2019 35.0 F. 28.0 F.
Fri Dec 6 22:08:05 2019 32.0 F. 27.0 F.
Fri Dec 6 23:08:05 2019 31.0 F. 27.0 F.
Sat Dec 7 00:08:05 2019 31.0 F. 27.0 F.
Sat Dec 7 01:08:04 2019 29.0 F. 26.1 F.
Sat Dec 7 02:08:04 2019 30.0 F. 26.1 F.
Sat Dec 7 03:08:04 2019 28.0 F. 25.0 F.
Sat Dec 7 04:08:05 2019 27.0 F. 25.0 F.
Sat Dec 7 05:08:05 2019 26.0 F. 24.1 F.
Sat Dec 7 06:08:04 2019 25.0 F. 24.1 F.
Sat Dec 7 07:08:04 2019 25.0 F. 24.1 F.
Sat Dec 7 08:08:04 2019 28.0 F. 25.0 F.
Sat Dec 7 09:08:05 2019 32.0 F. 27.0 F.
Sat Dec 7 10:08:04 2019 36.0 F. 28.9 F.
Sat Dec 7 11:08:04 2019 37.0 F. 28.9 F.
Sat Dec 7 12:08:04 2019 37.0 F. 28.9 F.
Sat Dec 7 13:08:04 2019 42.0 F. 33.1 F.
Sat Dec 7 14:08:05 2019 44.0 F. 35.1 F.
Sat Dec 7 15:08:05 2019 45.0 F. 34.0 F.
Sat Dec 7 16:08:04 2019 45.0 F. 34.0 F.
Sat Dec 7 17:08:05 2019 42.0 F. 34.0 F.
Sat Dec 7 18:08:05 2019 36.0 F. 32.0 F.
Sat Dec 7 19:08:05 2019 33.0 F. 32.0 F.
Sat Dec 7 20:08:05 2019 31.0 F. 28.9 F.
Sat Dec 7 21:08:04 2019 29.0 F. 28.9 F.
Sat Dec 7 22:08:05 2019 30.0 F. 28.9 F.
Sat Dec 7 23:08:05 2019 30.0 F. 28.9 F.
Sun Dec 8 00:08:05 2019 27.0 F. 26.1 F.
Sun Dec 8 01:08:04 2019 28.0 F. 26.1 F.
Sun Dec 8 02:08:05 2019 30.0 F. 28.0 F.
Sun Dec 8 03:08:05 2019 30.0 F. 28.9 F.
Sun Dec 8 04:08:04 2019 29.0 F. 28.9 F.
Sun Dec 8 05:08:05 2019 28.0 F. 28.0 F.
Sun Dec 8 06:08:05 2019 28.0 F. 27.0 F.
Sun Dec 8 07:08:04 2019 31.0 F. 30.0 F.
Sun Dec 8 08:08:04 2019 35.0 F. 34.0 F.
Sun Dec 8 09:08:05 2019 45.0 F. 41.0 F.
Sun Dec 8 10:08:05 2019 46.0 F. 42.1 F.
Sun Dec 8 11:08:05 2019 51.0 F. 43.0 F.
Sun Dec 8 12:08:05 2019 52.0 F. 43.0 F.
Sun Dec 8 13:08:04 2019 54.0 F. 44.1 F.
Sun Dec 8 14:08:05 2019 54.0 F. 44.1 F.
Sun Dec 8 15:08:05 2019 48.0 F. 42.1 F.
Sun Dec 8 16:08:04 2019 48.0 F. 42.1 F.
Sun Dec 8 17:08:05 2019 47.0 F. 43.0 F.
Sun Dec 8 18:08:05 2019 47.0 F. 43.0 F.
Sun Dec 8 19:08:05 2019 47.0 F. 43.0 F.
Sun Dec 8 20:08:05 2019 46.0 F. 43.0 F.
Sun Dec 8 21:08:05 2019 48.0 F. 45.0 F.
Sun Dec 8 22:08:05 2019 50.0 F. 46.0 F.
Sun Dec 8 23:08:04 2019 50.0 F. 46.9 F.
Mon Dec 9 00:08:05 2019 52.0 F. 48.0 F.
Mon Dec 9 01:08:05 2019 54.0 F. 48.9 F.
Mon Dec 9 02:08:05 2019 53.0 F. 48.0 F.
Mon Dec 9 03:08:04 2019 52.0 F. 48.0 F.
Mon Dec 9 04:08:36 2019 52.0 F. 48.0 F.
Mon Dec 9 05:08:05 2019 52.0 F. 50.0 F.
Mon Dec 9 06:08:05 2019 52.0 F. 51.1 F.
Mon Dec 9 07:08:05 2019 53.0 F. 51.1 F.
Mon Dec 9 08:08:05 2019 54.0 F. 52.0 F.
Mon Dec 9 09:08:04 2019 55.0 F. 53.1 F.
Mon Dec 9 10:08:04 2019 55.0 F. 53.1 F.
Mon Dec 9 11:08:05 2019 55.0 F. 54.0 F.
Mon Dec 9 12:08:05 2019 57.0 F. 54.0 F.
Mon Dec 9 13:08:04 2019 57.0 F. 54.0 F.
Mon Dec 9 14:08:05 2019 58.0 F. 54.0 F.
Mon Dec 9 15:08:04 2019 58.0 F. 54.0 F.
Mon Dec 9 16:08:05 2019 58.0 F. 54.0 F.
Mon Dec 9 17:08:04 2019 57.0 F. 54.0 F.
Mon Dec 9 18:08:05 2019 55.0 F. 48.9 F.
Mon Dec 9 19:08:04 2019 53.0 F. 46.9 F.
Mon Dec 9 20:08:05 2019 47.0 F. 42.1 F.
Mon Dec 9 21:08:05 2019 44.0 F. 37.9 F.
Mon Dec 9 22:08:04 2019 39.0 F. 30.9 F.
Mon Dec 9 23:08:05 2019 35.0 F. 27.0 F.
Tue Dec 10 00:08:04 2019 33.0 F. 24.1 F.
Tue Dec 10 01:08:05 2019 31.0 F. 21.9 F.
Tue Dec 10 02:08:05 2019 30.0 F. 18.0 F.
Tue Dec 10 03:08:04 2019 28.0 F. 18.0 F.
Tue Dec 10 04:08:05 2019 28.0 F. 16.0 F.
Tue Dec 10 05:08:04 2019 28.0 F. 14.0 F.
Tue Dec 10 06:08:05 2019 27.0 F. 14.0 F.
Tue Dec 10 07:08:05 2019 26.0 F. 12.9 F.
Tue Dec 10 08:08:05 2019 26.0 F. 10.9 F.
Tue Dec 10 09:08:04 2019 26.0 F. 12.0 F.
Tue Dec 10 10:08:05 2019 27.0 F. 12.0 F.
Tue Dec 10 11:08:04 2019 28.0 F. 12.0 F.
Tue Dec 10 12:08:04 2019 28.0 F. 12.9 F.
Tue Dec 10 13:08:05 2019 30.0 F. 12.9 F.
Tue Dec 10 14:08:05 2019 30.0 F. 12.9 F.
Tue Dec 10 15:08:05 2019 32.0 F. 12.9 F.
Tue Dec 10 16:08:05 2019 31.0 F. 14.0 F.
Tue Dec 10 17:08:05 2019 29.0 F. 16.0 F.
Tue Dec 10 18:08:05 2019 28.0 F. 15.1 F.
Tue Dec 10 19:08:04 2019 25.0 F. 16.0 F.
Tue Dec 10 20:08:05 2019 23.0 F. 19.0 F.
Tue Dec 10 21:08:05 2019 21.0 F. 18.0 F.
Tue Dec 10 22:08:05 2019 21.0 F. 18.0 F.
Tue Dec 10 23:08:05 2019 22.0 F. 17.1 F.
Wed Dec 11 00:08:04 2019 24.0 F. 18.0 F.
Wed Dec 11 01:08:04 2019 23.0 F. 17.1 F.
Wed Dec 11 02:08:05 2019 22.0 F. 17.1 F.
Wed Dec 11 03:08:05 2019 24.0 F. 18.0 F.
Wed Dec 11 04:08:05 2019 21.0 F. 17.1 F.
Wed Dec 11 05:08:05 2019 19.0 F. 16.0 F.
Wed Dec 11 06:08:05 2019 17.0 F. 15.1 F.
Wed Dec 11 07:08:05 2019 18.0 F. 15.1 F.
Wed Dec 11 08:08:05 2019 22.0 F. 18.0 F.
Wed Dec 11 09:08:05 2019 28.0 F. 21.9 F.
Wed Dec 11 10:08:05 2019 28.0 F. 21.9 F.
Wed Dec 11 11:08:05 2019 40.0 F. 23.0 F.
Wed Dec 11 12:08:05 2019 43.0 F. 21.9 F.
Wed Dec 11 13:08:05 2019 45.0 F. 21.9 F.
Wed Dec 11 14:08:05 2019 46.0 F. 23.0 F.
Wed Dec 11 15:08:04 2019 46.0 F. 25.0 F.
Wed Dec 11 16:08:05 2019 44.0 F. 26.1 F.
Wed Dec 11 17:08:05 2019 39.0 F. 25.0 F.
Wed Dec 11 18:08:05 2019 36.0 F. 25.0 F.
Wed Dec 11 19:08:05 2019 31.0 F. 24.1 F.
Wed Dec 11 20:08:05 2019 31.0 F. 24.1 F.
Wed Dec 11 21:08:05 2019 29.0 F. 24.1 F.
Wed Dec 11 22:08:05 2019 32.0 F. 26.1 F.
Wed Dec 11 23:08:04 2019 32.0 F. 26.1 F.
Thu Dec 12 00:08:05 2019 32.0 F. 26.1 F.
Thu Dec 12 01:08:04 2019 31.0 F. 25.0 F.
Thu Dec 12 02:08:04 2019 30.0 F. 25.0 F.
Thu Dec 12 03:08:05 2019 31.0 F. 25.0 F.
Thu Dec 12 04:08:05 2019 29.0 F. 24.1 F.